Time,TemperatureF,DewpointF,PressureIn,WindDirection,WindDirectionDegrees,WindSpeedMPH,WindSpeedGustMPH,Humidity,HourlyPrecipIn,Conditions,Clouds,dailyrainin,SolarRadiationWatts/m^2,SoftwareType,DateUTC
2012-10-09 00:00:00,74.3,73.1,30.03,NNE,33,0.0,1.0,96,0.00,,---,0.00,0.00,VWS V14.01,2012-10-09 04:00:00,
2012-10-09 00:01:00,74.3,73.1,30.03,NNE,33,0.0,1.0,96,0.00,,---,0.00,0.00,VWS V14.01,2012-10-09 04:01:00,
2012-10-09 00:06:00,74.4,73.2,30.03,NNE,33,0.0,1.0,96,0.00,,---,0.00,0.00,VWS V14.01,2012-10-09 04:06:00,
2012-10-09 00:11:00,74.5,73.3,30.03,NNE,33,0.0,0.0,96,0.00,,---,0.00,0.00,VWS V14.01,2012-10-09 04:11:00,
2012-10-09 00:16:00,74.7,73.5,30.02,NNE,33,0.0,0.0,96,0.00,,---,0.00,0.00,VWS V14.01,2012-10-09 04:16:00,
2012-10-09 00:21:00,74.8,73.3,30.02,North,8,0.0,0.0,95,0.00,,---,0.00,0.00,VWS V14.01,2012-10-09 04:21:00,
2012-10-09 00:26:00,74.8,73.3,30.02,North,8,0.0,0.0,95,0.00,,---,0.00,0.00,VWS V14.01,2012-10-09 04:26:00,
2012-10-09 00:31:00,74.6,73.1,30.01,North,8,0.0,0.0,95,0.00,,---,0.00,0.00,VWS V14.01,2012-10-09 04:31:00,
2012-10-09 00:36:00,74.5,73.0,30.01,North,8,0.0,0.0,95,0.00,,---,0.00,0.00,VWS V14.01,2012-10-09 04:36:00,
2012-10-09 00:41:00,74.3,72.8,30.01,North,8,0.0,0.0,95,0.00,,---,0.00,0.00,VWS V14.01,2012-10-09 04:41:00,
2012-10-09 00:46:00,74.2,72.7,30.01,North,8,0.0,0.0,95,0.00,,---,0.00,0.00,VWS V14.01,2012-10-09 04:46:00,
2012-10-09 00:51:00,74.1,72.6,30.00,North,8,0.0,0.0,95,0.00,,---,0.00,0.00,VWS V14.01,2012-10-09 04:51:00,
2012-10-09 00:56:00,74.1,72.9,30.00,North,8,0.0,0.0,96,0.00,,---,0.00,0.00,VWS V14.01,2012-10-09 04:56:00,
2012-10-09 01:00:00,74.4,73.2,30.03,NNE,33,0.0,1.0,96,0.00,,---,0.00,0.00,VWS V14.01,2012-10-09 05:00:00,
2012-10-09 01:01:00,74.0,72.8,30.00,ESE,116,2.0,2.0,96,0.00,,---,0.00,0.00,VWS V14.01,2012-10-09 05:01:00,
2012-10-09 01:06:00,74.0,72.8,30.00,ESE,116,0.0,2.0,96,0.00,,---,0.00,0.00,VWS V14.01,2012-10-09 05:06:00,
2012-10-09 01:11:00,73.9,72.7,30.00,ESE,116,0.0,0.0,96,0.00,,---,0.00,0.00,VWS V14.01,2012-10-09 05:11:00,
2012-10-09 01:16:00,73.7,72.5,30.00,ESE,116,0.0,0.0,96,0.00,,---,0.00,0.00,VWS V14.01,2012-10-09 05:16:00,
2012-10-09 01:21:00,73.6,72.4,30.00,ESE,116,0.0,0.0,96,0.00,,---,0.00,0.00,VWS V14.01,2012-10-09 05:21:00,
2012-10-09 01:26:00,73.5,72.3,30.00,ESE,116,0.0,0.0,96,0.00,,---,0.00,0.00,VWS V14.01,2012-10-09 05:26:00,
2012-10-09 01:31:00,73.4,72.2,30.00,ESE,116,0.0,0.0,96,0.00,,---,0.00,0.00,VWS V14.01,2012-10-09 05:31:00,
2012-10-09 01:36:00,73.2,72.0,30.00,ESE,116,0.0,0.0,96,0.00,,---,0.00,0.00,VWS V14.01,2012-10-09 05:36:00,
2012-10-09 01:41:00,73.2,72.0,30.00,ESE,116,0.0,0.0,96,0.00,,---,0.00,0.00,VWS V14.01,2012-10-09 05:41:00,
2012-10-09 01:46:00,73.2,72.0,29.99,ESE,116,0.0,0.0,96,0.00,,---,0.00,0.00,VWS V14.01,2012-10-09 05:46:00,
2012-10-09 01:51:00,73.2,72.3,29.99,ESE,116,0.0,0.0,97,0.00,,---,0.00,0.00,VWS V14.01,2012-10-09 05:51:00,
2012-10-09 01:56:00,73.1,72.2,29.99,ESE,116,0.0,0.0,97,0.00,,---,0.00,0.00,VWS V14.01,2012-10-09 05:56:00,
2012-10-09 02:00:00,74.0,72.8,30.00,ESE,116,0.0,2.0,96,0.00,,---,0.00,0.00,VWS V14.01,2012-10-09 06:00:00,
2012-10-09 02:01:00,73.0,72.1,29.99,ESE,116,0.0,0.0,97,0.00,,---,0.00,0.00,VWS V14.01,2012-10-09 06:01:00,
2012-10-09 02:06:00,73.0,72.1,29.99,ESE,116,0.0,0.0,97,0.00,,---,0.00,0.00,VWS V14.01,2012-10-09 06:06:00,
2012-10-09 02:11:00,72.9,72.0,29.99,ESE,116,0.0,0.0,97,0.00,,---,0.00,0.00,VWS V14.01,2012-10-09 06:11:00,
2012-10-09 02:16:00,72.9,72.0,29.99,ESE,116,0.0,0.0,97,0.00,,---,0.00,0.00,VWS V14.01,2012-10-09 06:16:00,
2012-10-09 02:21:00,72.9,72.0,29.99,ESE,116,0.0,0.0,97,0.00,,---,0.00,0.00,VWS V14.01,2012-10-09 06:21:00,
2012-10-09 02:26:00,72.8,71.9,29.99,ESE,116,0.0,0.0,97,0.00,,---,0.00,0.00,VWS V14.01,2012-10-09 06:26:00,
2012-10-09 02:31:00,72.8,71.9,29.98,ESE,116,0.0,1.0,97,0.00,,---,0.00,0.00,VWS V14.01,2012-10-09 06:31:00,
2012-10-09 02:37:00,72.8,71.9,29.98,ESE,116,0.0,1.0,97,0.00,,---,0.00,0.00,VWS V14.01,2012-10-09 06:37:00,
2012-10-09 02:42:00,72.7,71.8,29.98,ESE,116,0.0,1.0,97,0.00,,---,0.00,0.00,VWS V14.01,2012-10-09 06:42:00,
2012-10-09 02:47:00,72.8,71.9,29.98,ESE,116,0.0,1.0,97,0.00,,---,0.00,0.00,VWS V14.01,2012-10-09 06:47:00,
2012-10-09 02:52:00,72.7,71.8,29.98,ESE,116,0.0,1.0,97,0.00,,---,0.00,0.00,VWS V14.01,2012-10-09 06:52:00,
2012-10-09 02:57:00,72.6,71.7,29.98,ESE,116,0.0,1.0,97,0.00,,---,0.00,0.00,VWS V14.01,2012-10-09 06:57:00,
2012-10-09 03:00:00,73.0,72.1,29.99,ESE,116,0.0,0.0,97,0.00,,---,0.00,0.00,VWS V14.01,2012-10-09 07:00:00,
2012-10-09 03:02:00,72.6,71.7,29.98,ESE,116,0.0,1.0,97,0.00,,---,0.00,0.00,VWS V14.01,2012-10-09 07:02:00,
2012-10-09 03:07:00,72.5,71.6,29.98,ESE,116,0.0,1.0,97,0.00,,---,0.00,0.00,VWS V14.01,2012-10-09 07:07:00,
2012-10-09 03:12:00,72.4,71.5,29.98,ESE,116,0.0,0.0,97,0.00,,---,0.00,0.00,VWS V14.01,2012-10-09 07:12:00,
2012-10-09 03:17:00,72.4,71.8,29.98,ESE,116,0.0,0.0,98,0.00,,---,0.00,0.00,VWS V14.01,2012-10-09 07:17:00,
2012-10-09 03:22:00,72.5,71.9,29.98,ESE,116,0.0,0.0,98,0.00,,---,0.00,0.00,VWS V14.01,2012-10-09 07:22:00,
2012-10-09 03:27:00,72.5,71.9,29.98,ESE,116,0.0,0.0,98,0.00,,---,0.00,0.00,VWS V14.01,2012-10-09 07:27:00,
2012-10-09 03:32:00,72.5,71.9,29.98,ESE,116,0.0,0.0,98,0.00,,---,0.00,0.00,VWS V14.01,2012-10-09 07:32:00,
2012-10-09 03:37:00,72.4,71.8,29.98,ESE,116,0.0,0.0,98,0.00,,---,0.00,0.00,VWS V14.01,2012-10-09 07:37:00,
2012-10-09 03:42:00,72.4,71.8,29.98,ESE,116,0.0,0.0,98,0.00,,---,0.00,0.00,VWS V14.01,2012-10-09 07:42:00,
2012-10-09 03:47:00,72.4,71.8,29.98,ESE,116,0.0,0.0,98,0.00,,---,0.00,0.00,VWS V14.01,2012-10-09 07:47:00,
2012-10-09 03:52:00,72.4,71.8,29.98,ESE,116,0.0,0.0,98,0.00,,---,0.00,0.00,VWS V14.01,2012-10-09 07:52:00,
2012-10-09 03:57:00,72.2,71.6,29.98,ESE,116,0.0,0.0,98,0.00,,---,0.00,0.00,VWS V14.01,2012-10-09 07:57:00,
2012-10-09 04:00:00,72.5,71.6,29.98,ESE,116,0.0,1.0,97,0.00,,---,0.00,0.00,VWS V14.01,2012-10-09 08:00:00,
2012-10-09 04:02:00,72.2,71.6,29.98,ESE,116,0.0,0.0,98,0.00,,---,0.00,0.00,VWS V14.01,2012-10-09 08:02:00,
2012-10-09 04:07:00,72.1,71.5,29.97,ESE,116,0.0,0.0,98,0.00,,---,0.00,0.00,VWS V14.01,2012-10-09 08:07:00,
2012-10-09 04:12:00,72.1,71.5,29.97,ESE,116,0.0,0.0,98,0.00,,---,0.00,0.00,VWS V14.01,2012-10-09 08:12:00,
2012-10-09 04:17:00,72.0,71.4,29.98,ESE,116,0.0,0.0,98,0.00,,---,0.00,0.00,VWS V14.01,2012-10-09 08:17:00,
2012-10-09 04:22:00,71.9,71.3,29.98,ESE,116,0.0,0.0,98,0.00,,---,0.00,0.00,VWS V14.01,2012-10-09 08:22:00,
2012-10-09 04:27:00,71.8,71.2,29.98,ESE,116,0.0,0.0,98,0.00,,---,0.00,0.00,VWS V14.01,2012-10-09 08:27:00,
2012-10-09 04:32:00,71.9,71.3,29.98,ESE,116,0.0,0.0,98,0.00,,---,0.00,0.00,VWS V14.01,2012-10-09 08:32:00,
2012-10-09 04:37:00,71.8,71.2,29.98,ESE,116,0.0,0.0,98,0.00,,---,0.00,0.00,VWS V14.01,2012-10-09 08:37:00,
2012-10-09 04:42:00,71.7,71.1,29.98,ESE,116,0.0,0.0,98,0.00,,---,0.00,0.00,VWS V14.01,2012-10-09 08:42:00,
2012-10-09 04:47:00,71.8,71.2,29.98,ESE,116,0.0,0.0,98,0.00,,---,0.00,0.00,VWS V14.01,2012-10-09 08:47:00,
2012-10-09 04:52:00,71.7,71.1,29.98,ESE,116,0.0,0.0,98,0.00,,---,0.00,0.00,VWS V14.01,2012-10-09 08:52:00,
2012-10-09 04:57:00,71.6,71.0,29.98,ESE,116,0.0,0.0,98,0.00,,---,0.00,0.00,VWS V14.01,2012-10-09 08:57:00,
2012-10-09 05:00:00,72.1,71.5,29.97,ESE,116,0.0,0.0,98,0.00,,---,0.00,0.00,VWS V14.01,2012-10-09 09:00:00,
2012-10-09 05:02:00,71.6,71.0,29.98,ESE,116,0.0,0.0,98,0.00,,---,0.00,0.00,VWS V14.01,2012-10-09 09:02:00,
2012-10-09 05:07:00,71.5,70.9,29.98,ESE,116,0.0,0.0,98,0.00,,---,0.00,0.00,VWS V14.01,2012-10-09 09:07:00,
2012-10-09 05:12:00,71.5,70.9,29.98,ESE,116,0.0,0.0,98,0.00,,---,0.00,0.00,VWS V14.01,2012-10-09 09:12:00,
2012-10-09 05:17:00,71.6,71.0,29.98,ESE,116,0.0,0.0,98,0.00,,---,0.00,0.00,VWS V14.01,2012-10-09 09:17:00,
2012-10-09 05:22:00,71.5,70.9,29.98,ESE,116,0.0,0.0,98,0.00,,---,0.00,0.00,VWS V14.01,2012-10-09 09:22:00,
2012-10-09 05:27:00,71.5,70.9,29.99,ESE,116,0.0,0.0,98,0.00,,---,0.00,0.00,VWS V14.01,2012-10-09 09:27:00,
2012-10-09 05:33:00,71.6,71.0,29.99,ESE,116,0.0,1.0,98,0.00,,---,0.00,0.00,VWS V14.01,2012-10-09 09:33:00,
2012-10-09 05:38:00,71.6,71.0,29.99,ESE,116,0.0,1.0,98,0.00,,---,0.00,0.00,VWS V14.01,2012-10-09 09:38:00,
2012-10-09 05:43:00,71.7,71.1,29.99,ESE,116,0.0,1.0,98,0.00,,---,0.00,0.00,VWS V14.01,2012-10-09 09:43:00,
2012-10-09 05:48:00,71.7,71.1,29.98,ESE,116,0.0,1.0,98,0.00,,---,0.00,0.00,VWS V14.01,2012-10-09 09:48:00,
2012-10-09 05:53:00,71.7,71.1,29.98,ESE,116,0.0,1.0,98,0.00,,---,0.00,0.00,VWS V14.01,2012-10-09 09:53:00,
2012-10-09 05:58:00,71.5,70.9,29.99,ESE,116,0.0,1.0,98,0.00,,---,0.00,0.00,VWS V14.01,2012-10-09 09:58:00,
2012-10-09 06:00:00,71.5,70.9,29.98,ESE,116,0.0,0.0,98,0.00,,---,0.00,0.00,VWS V14.01,2012-10-09 10:00:00,
2012-10-09 06:03:00,71.5,70.9,29.99,ESE,116,0.0,1.0,98,0.00,,---,0.00,0.00,VWS V14.01,2012-10-09 10:03:00,
2012-10-09 06:08:00,71.4,70.8,29.99,ESE,116,0.0,1.0,98,0.00,,---,0.00,0.00,VWS V14.01,2012-10-09 10:08:00,
2012-10-09 06:13:00,71.3,70.7,29.99,ESE,116,0.0,0.0,98,0.00,,---,0.00,0.00,VWS V14.01,2012-10-09 10:13:00,
2012-10-09 06:18:00,71.2,70.6,29.99,ESE,116,0.0,0.0,98,0.00,,---,0.00,0.00,VWS V14.01,2012-10-09 10:18:00,
2012-10-09 06:23:00,71.2,70.6,29.99,ESE,116,0.0,0.0,98,0.00,,---,0.00,0.00,VWS V14.01,2012-10-09 10:23:00,
2012-10-09 06:28:00,71.3,70.7,29.99,ESE,116,0.0,0.0,98,0.00,,---,0.00,0.00,VWS V14.01,2012-10-09 10:28:00,
2012-10-09 06:33:00,71.3,70.7,29.99,ESE,116,0.0,0.0,98,0.00,,---,0.00,0.00,VWS V14.01,2012-10-09 10:33:00,
2012-10-09 06:38:00,71.4,70.8,30.00,ESE,116,0.0,0.0,98,0.00,,---,0.00,0.00,VWS V14.01,2012-10-09 10:38:00,
2012-10-09 06:43:00,71.3,70.7,30.00,ESE,116,0.0,0.0,98,0.00,,---,0.00,0.00,VWS V14.01,2012-10-09 10:43:00,
2012-10-09 06:48:00,71.4,71.1,30.00,ESE,116,0.0,0.0,99,0.00,,---,0.00,0.00,VWS V14.01,2012-10-09 10:48:00,
2012-10-09 06:53:00,71.5,70.9,30.00,ESE,116,0.0,0.0,98,0.00,,---,0.00,0.00,VWS V14.01,2012-10-09 10:53:00,
2012-10-09 06:58:00,71.6,71.0,30.00,ESE,116,0.0,0.0,98,0.00,,---,0.00,0.00,VWS V14.01,2012-10-09 10:58:00,
2012-10-09 07:00:00,71.3,70.7,29.99,ESE,116,0.0,1.0,98,0.00,,---,0.00,0.00,VWS V14.01,2012-10-09 11:00:00,
2012-10-09 07:03:00,71.6,71.0,30.00,ESE,116,0.0,0.0,98,0.00,,---,0.00,0.00,VWS V14.01,2012-10-09 11:03:00,
2012-10-09 07:08:00,71.5,70.9,30.00,ESE,116,0.0,0.0,98,0.00,,---,0.00,0.00,VWS V14.01,2012-10-09 11:08:00,
2012-10-09 07:13:00,71.5,70.9,30.00,ESE,116,0.0,0.0,98,0.00,,---,0.00,0.00,VWS V14.01,2012-10-09 11:13:00,
2012-10-09 07:18:00,71.5,70.9,30.00,ESE,116,0.0,0.0,98,0.00,,---,0.00,0.00,VWS V14.01,2012-10-09 11:18:00,
2012-10-09 07:23:00,71.5,70.9,30.00,ESE,116,0.0,0.0,98,0.00,,---,0.00,0.00,VWS V14.01,2012-10-09 11:23:00,
2012-10-09 07:28:00,71.4,70.8,30.00,ESE,116,0.0,0.0,98,0.00,,---,0.00,0.00,VWS V14.01,2012-10-09 11:28:00,
2012-10-09 07:33:00,71.4,70.8,30.00,ESE,116,0.0,0.0,98,0.00,,---,0.00,5.00,VWS V14.01,2012-10-09 11:33:00,
2012-10-09 07:38:00,71.4,70.8,30.00,ESE,116,0.0,0.0,98,0.00,,---,0.00,9.00,VWS V14.01,2012-10-09 11:38:00,
2012-10-09 07:43:00,71.5,70.9,30.01,ESE,116,0.0,1.0,98,0.00,,---,0.00,11.00,VWS V14.01,2012-10-09 11:43:00,
2012-10-09 07:48:00,71.6,71.0,30.01,ESE,116,1.0,1.0,98,0.00,,---,0.00,14.00,VWS V14.01,2012-10-09 11:48:00,
2012-10-09 07:53:00,71.6,71.0,30.01,ENE,58,0.0,3.0,98,0.00,,---,0.00,16.00,VWS V14.01,2012-10-09 11:53:00,
2012-10-09 07:58:00,71.6,71.0,30.01,East,82,2.0,3.0,98,0.00,,---,0.00,21.00,VWS V14.01,2012-10-09 11:58:00,
2012-10-09 08:00:00,71.5,70.9,30.00,ESE,116,0.0,0.0,98,0.00,,---,0.00,0.00,VWS V14.01,2012-10-09 12:00:00,
2012-10-09 08:03:00,71.6,71.0,30.01,ENE,65,0.0,3.0,98,0.00,,---,0.00,26.00,VWS V14.01,2012-10-09 12:03:00,
2012-10-09 08:08:00,71.6,71.0,30.01,ENE,59,0.0,4.0,98,0.00,,---,0.00,33.00,VWS V14.01,2012-10-09 12:08:00,
2012-10-09 08:13:00,71.6,71.0,30.01,ENE,60,1.0,3.0,98,0.00,,---,0.00,46.00,VWS V14.01,2012-10-09 12:13:00,
2012-10-09 08:18:00,71.7,71.4,30.01,ENE,78,0.0,3.0,99,0.00,,---,0.00,51.00,VWS V14.01,2012-10-09 12:18:00,
2012-10-09 08:23:00,71.9,71.6,30.02,NNE,28,0.0,3.0,99,0.00,,---,0.00,49.00,VWS V14.01,2012-10-09 12:23:00,
2012-10-09 08:28:00,72.1,71.8,30.02,NNE,28,0.0,3.0,99,0.00,,---,0.00,53.00,VWS V14.01,2012-10-09 12:28:00,
2012-10-09 08:33:00,72.2,71.9,30.02,NNE,28,0.0,3.0,99,0.00,,---,0.00,70.00,VWS V14.01,2012-10-09 12:33:00,
2012-10-09 08:38:00,72.4,72.1,30.02,NE,41,0.0,3.0,99,0.00,,---,0.00,60.00,VWS V14.01,2012-10-09 12:38:00,
2012-10-09 08:43:00,72.6,72.3,30.02,North,349,0.0,3.0,99,0.00,,---,0.00,56.00,VWS V14.01,2012-10-09 12:43:00,
2012-10-09 08:48:00,72.8,72.5,30.02,North,349,0.0,3.0,99,0.00,,---,0.00,62.00,VWS V14.01,2012-10-09 12:48:00,
2012-10-09 08:53:00,72.9,72.6,30.03,ENE,57,0.0,3.0,99,0.00,,---,0.00,65.00,VWS V14.01,2012-10-09 12:53:00,
2012-10-09 08:58:00,72.9,72.6,30.03,East,97,2.0,5.0,99,0.00,,---,0.00,72.00,VWS V14.01,2012-10-09 12:58:00,
2012-10-09 09:00:00,71.6,71.0,30.01,ENE,60,3.0,4.0,98,0.00,,---,0.00,35.00,VWS V14.01,2012-10-09 13:00:00,
2012-10-09 09:03:00,72.5,72.2,30.03,ENE,58,0.0,7.0,99,0.00,,---,0.00,84.00,VWS V14.01,2012-10-09 13:03:00,
2012-10-09 09:08:00,72.5,72.2,30.03,ENE,62,3.0,7.0,99,0.00,,---,0.00,77.00,VWS V14.01,2012-10-09 13:08:00,
2012-10-09 09:13:00,72.4,71.8,30.03,ENE,68,0.0,5.0,98,0.00,,---,0.00,76.00,VWS V14.01,2012-10-09 13:13:00,
2012-10-09 09:18:00,72.7,72.4,30.03,ENE,67,0.0,5.0,99,0.00,,---,0.00,83.00,VWS V14.01,2012-10-09 13:18:00,
2012-10-09 09:23:00,72.8,72.5,30.03,ENE,70,1.0,5.0,99,0.00,,---,0.00,84.00,VWS V14.01,2012-10-09 13:23:00,
2012-10-09 09:28:00,72.8,72.5,30.03,East,79,0.0,5.0,99,0.00,,---,0.00,105.00,VWS V14.01,2012-10-09 13:28:00,
2012-10-09 09:33:00,73.0,72.7,30.04,East,87,1.0,5.0,99,0.00,,---,0.00,113.00,VWS V14.01,2012-10-09 13:33:00,
2012-10-09 09:38:00,73.0,72.7,30.04,ENE,60,1.0,5.0,99,0.00,,---,0.00,113.00,VWS V14.01,2012-10-09 13:38:00,
2012-10-09 09:43:00,73.2,72.9,30.04,ENE,72,0.0,5.0,99,0.00,,---,0.00,134.00,VWS V14.01,2012-10-09 13:43:00,
2012-10-09 09:48:00,73.2,72.9,30.04,ESE,107,1.0,5.0,99,0.00,,---,0.00,113.00,VWS V14.01,2012-10-09 13:48:00,
2012-10-09 09:53:00,73.1,72.8,30.04,NE,54,1.0,5.0,99,0.00,,---,0.00,91.00,VWS V14.01,2012-10-09 13:53:00,
2012-10-09 09:58:00,73.4,73.1,30.04,NE,54,0.0,5.0,99,0.00,,---,0.00,102.00,VWS V14.01,2012-10-09 13:58:00,
2012-10-09 10:00:00,72.5,72.2,30.03,NE,50,3.0,7.0,99,0.00,,---,0.00,76.00,VWS V14.01,2012-10-09 14:00:00,
2012-10-09 10:03:00,73.5,72.9,30.05,NE,41,1.0,5.0,98,0.00,,---,0.00,102.00,VWS V14.01,2012-10-09 14:03:00,
2012-10-09 10:08:00,73.5,72.9,30.04,East,83,1.0,5.0,98,0.00,,---,0.00,132.00,VWS V14.01,2012-10-09 14:08:00,
2012-10-09 10:13:00,73.5,72.9,30.05,ESE,108,3.0,5.0,98,0.00,,---,0.00,105.00,VWS V14.01,2012-10-09 14:13:00,
2012-10-09 10:18:00,73.9,73.3,30.04,ENE,57,1.0,5.0,98,0.00,,---,0.00,137.00,VWS V14.01,2012-10-09 14:18:00,
2012-10-09 10:23:00,73.9,73.3,30.05,NE,50,0.0,6.0,98,0.00,,---,0.00,121.00,VWS V14.01,2012-10-09 14:23:00,
2012-10-09 10:28:00,73.9,73.3,30.05,ENE,76,2.0,6.0,98,0.00,,---,0.00,121.00,VWS V14.01,2012-10-09 14:28:00,
2012-10-09 10:33:00,74.3,73.7,30.05,NE,53,2.0,6.0,98,0.00,,---,0.00,162.00,VWS V14.01,2012-10-09 14:33:00,
2012-10-09 10:38:00,74.5,73.6,30.05,ENE,78,3.0,6.0,97,0.00,,---,0.00,142.00,VWS V14.01,2012-10-09 14:38:00,
2012-10-09 10:43:00,74.4,73.5,30.05,ENE,76,2.0,7.0,97,0.00,,---,0.00,116.00,VWS V14.01,2012-10-09 14:43:00,
2012-10-09 10:48:00,74.7,73.8,30.05,NNE,33,0.0,7.0,97,0.00,,---,0.00,162.00,VWS V14.01,2012-10-09 14:48:00,
2012-10-09 10:53:00,75.1,74.2,30.05,ENE,62,1.0,7.0,97,0.00,,---,0.00,165.00,VWS V14.01,2012-10-09 14:53:00,
2012-10-09 10:58:00,75.0,73.8,30.05,NE,53,0.0,7.0,96,0.00,,---,0.00,148.00,VWS V14.01,2012-10-09 14:58:00,
2012-10-09 11:00:00,73.5,72.9,30.04,NE,52,2.0,5.0,98,0.00,,---,0.00,132.00,VWS V14.01,2012-10-09 15:00:00,
2012-10-09 11:03:00,75.3,74.1,30.05,ESE,122,1.0,7.0,96,0.00,,---,0.00,148.00,VWS V14.01,2012-10-09 15:03:00,
2012-10-09 11:08:00,75.7,74.5,30.05,NE,47,0.0,0.0,96,0.00,,---,0.00,209.00,VWS V14.01,2012-10-09 15:08:00,
2012-10-09 11:14:00,75.9,74.1,30.05,NE,49,4.0,5.0,94,0.00,,---,0.00,190.00,VWS V14.01,2012-10-09 15:14:00,
2012-10-09 11:19:00,76.1,74.2,30.05,NNW,337,0.0,5.0,94,0.00,,---,0.00,192.00,VWS V14.01,2012-10-09 15:19:00,
2012-10-09 11:24:00,76.1,73.9,30.05,East,94,2.0,5.0,93,0.00,,---,0.00,216.00,VWS V14.01,2012-10-09 15:24:00,
2012-10-09 11:29:00,76.5,74.3,30.05,ENE,78,0.0,5.0,93,0.00,,---,0.00,192.00,VWS V14.01,2012-10-09 15:29:00,
2012-10-09 11:34:00,76.4,73.9,30.05,NNE,30,0.0,6.0,92,0.00,,---,0.00,174.00,VWS V14.01,2012-10-09 15:34:00,
2012-10-09 11:39:00,76.6,74.1,30.05,ENE,75,3.0,6.0,92,0.00,,---,0.00,322.00,VWS V14.01,2012-10-09 15:39:00,
2012-10-09 11:44:00,77.1,74.3,30.05,East,94,4.0,6.0,91,0.00,,---,0.00,302.00,VWS V14.01,2012-10-09 15:44:00,
2012-10-09 11:49:00,77.4,74.2,30.05,ENE,60,0.0,6.0,90,0.00,,---,0.00,232.00,VWS V14.01,2012-10-09 15:49:00,
2012-10-09 11:54:00,77.5,74.0,30.05,East,93,3.0,6.0,89,0.00,,---,0.00,278.00,VWS V14.01,2012-10-09 15:54:00,
2012-10-09 11:59:00,77.8,74.3,30.05,North,354,0.0,6.0,89,0.00,,---,0.00,325.00,VWS V14.01,2012-10-09 15:59:00,
2012-10-09 12:00:00,75.6,74.4,30.05,NE,47,0.0,7.0,96,0.00,,---,0.00,214.00,VWS V14.01,2012-10-09 16:00:00,
2012-10-09 12:04:00,78.2,74.4,30.05,NNE,29,0.0,6.0,88,0.00,,---,0.00,287.00,VWS V14.01,2012-10-09 16:04:00,
2012-10-09 12:09:00,78.4,74.2,30.05,ESE,122,3.0,3.0,87,0.00,,---,0.00,362.00,VWS V14.01,2012-10-09 16:09:00,
2012-10-09 12:14:00,78.7,74.8,30.05,East,90,5.0,5.0,88,0.00,,---,0.00,404.00,VWS V14.01,2012-10-09 16:14:00,
2012-10-09 12:19:00,78.7,74.5,30.05,ESE,120,0.0,5.0,87,0.00,,---,0.00,287.00,VWS V14.01,2012-10-09 16:19:00,
2012-10-09 12:24:00,78.6,74.4,30.05,ENE,68,1.0,5.0,87,0.00,,---,0.00,318.00,VWS V14.01,2012-10-09 16:24:00,
2012-10-09 12:29:00,78.8,74.9,30.05,North,354,1.0,5.0,88,0.00,,---,0.00,325.00,VWS V14.01,2012-10-09 16:29:00,
2012-10-09 12:34:00,78.8,74.6,30.05,North,2,2.0,5.0,87,0.00,,---,0.00,294.00,VWS V14.01,2012-10-09 16:34:00,
2012-10-09 12:39:00,78.5,74.7,30.05,ENE,62,5.0,6.0,88,0.00,,---,0.00,185.00,VWS V14.01,2012-10-09 16:39:00,
2012-10-09 12:44:00,78.4,74.2,30.05,NE,39,1.0,6.0,87,0.00,,---,0.00,179.00,VWS V14.01,2012-10-09 16:44:00,
2012-10-09 12:49:00,78.4,74.2,30.05,North,6,1.0,6.0,87,0.00,,---,0.00,169.00,VWS V14.01,2012-10-09 16:49:00,
2012-10-09 12:54:00,78.4,73.9,30.04,ESE,103,6.0,7.0,86,0.00,,---,0.00,309.00,VWS V14.01,2012-10-09 16:54:00,
2012-10-09 12:59:00,78.4,73.9,30.04,NE,45,3.0,7.0,86,0.00,,---,0.00,213.00,VWS V14.01,2012-10-09 16:59:00,
2012-10-09 13:00:00,78.4,74.2,30.05,ENE,60,2.0,6.0,87,0.00,,---,0.00,362.00,VWS V14.01,2012-10-09 17:00:00,
2012-10-09 13:04:00,78.6,74.4,30.04,NNE,28,0.0,7.0,87,0.00,,---,0.00,265.00,VWS V14.01,2012-10-09 17:04:00,
2012-10-09 13:09:00,80.3,75.0,30.04,East,85,2.0,2.0,84,0.00,,---,0.00,376.00,VWS V14.01,2012-10-09 17:09:00,
2012-10-09 13:14:00,80.4,74.8,30.03,NNW,345,0.0,4.0,83,0.00,,---,0.00,376.00,VWS V14.01,2012-10-09 17:14:00,
2012-10-09 13:19:00,80.8,74.1,30.04,SE,129,4.0,4.0,80,0.00,,---,0.00,339.00,VWS V14.01,2012-10-09 17:19:00,
2012-10-09 13:24:00,80.7,75.1,30.03,ESE,110,2.0,5.0,83,0.00,,---,0.00,306.00,VWS V14.01,2012-10-09 17:24:00,
2012-10-09 13:29:00,81.4,74.3,30.03,East,85,3.0,5.0,79,0.00,,---,0.00,306.00,VWS V14.01,2012-10-09 17:29:00,
2012-10-09 13:34:00,81.5,74.4,30.03,ENE,74,0.0,5.0,79,0.00,,---,0.00,1041.00,VWS V14.01,2012-10-09 17:34:00,
2012-10-09 13:39:00,81.7,74.2,30.03,NE,35,2.0,5.0,78,0.00,,---,0.00,343.00,VWS V14.01,2012-10-09 17:39:00,
2012-10-09 13:44:00,81.4,74.6,30.02,SE,134,1.0,5.0,80,0.00,,---,0.00,350.00,VWS V14.01,2012-10-09 17:44:00,
2012-10-09 13:49:00,82.2,75.0,30.02,North,8,1.0,5.0,79,0.00,,---,0.00,350.00,VWS V14.01,2012-10-09 17:49:00,
2012-10-09 13:54:00,82.5,74.2,30.02,North,360,0.0,5.0,76,0.00,,---,0.00,211.00,VWS V14.01,2012-10-09 17:54:00,
2012-10-09 13:59:00,81.7,74.2,30.02,ESE,117,2.0,5.0,78,0.00,,---,0.00,127.00,VWS V14.01,2012-10-09 17:59:00,
2012-10-09 14:00:00,80.1,75.5,30.04,SE,141,1.0,7.0,86,0.00,,---,0.00,1023.00,VWS V14.01,2012-10-09 18:00:00,
2012-10-09 14:04:00,81.0,73.5,30.01,ENE,77,1.0,5.0,78,0.00,,---,0.00,148.00,VWS V14.01,2012-10-09 18:04:00,
2012-10-09 14:09:00,81.0,73.9,30.01,East,83,0.0,1.0,79,0.00,,---,0.00,195.00,VWS V14.01,2012-10-09 18:09:00,
2012-10-09 14:14:00,82.6,75.1,30.01,SE,135,0.0,3.0,78,0.00,,---,0.00,925.00,VWS V14.01,2012-10-09 18:14:00,
2012-10-09 14:19:00,83.7,74.9,30.01,ESE,123,1.0,4.0,75,0.00,,---,0.00,925.00,VWS V14.01,2012-10-09 18:19:00,
2012-10-09 14:24:00,83.5,73.9,30.01,ENE,70,1.0,4.0,73,0.00,,---,0.00,156.00,VWS V14.01,2012-10-09 18:24:00,
2012-10-09 14:29:00,82.0,74.1,30.01,NE,45,0.0,4.0,77,0.00,,---,0.00,137.00,VWS V14.01,2012-10-09 18:29:00,
2012-10-09 14:34:00,81.4,73.5,30.01,NE,45,0.0,4.0,77,0.00,,---,0.00,144.00,VWS V14.01,2012-10-09 18:34:00,
2012-10-09 14:39:00,82.1,73.8,30.00,NNW,347,1.0,4.0,76,0.00,,---,0.00,805.00,VWS V14.01,2012-10-09 18:39:00,
2012-10-09 14:45:00,83.3,73.8,30.00,North,351,0.0,4.0,73,0.00,,---,0.00,872.00,VWS V14.01,2012-10-09 18:45:00,
2012-10-09 14:50:00,84.2,74.6,30.00,NE,37,3.0,4.0,73,0.00,,---,0.00,988.00,VWS V14.01,2012-10-09 18:50:00,
2012-10-09 14:55:00,84.1,75.7,30.00,NE,55,2.0,4.0,76,0.00,,---,0.00,988.00,VWS V14.01,2012-10-09 18:55:00,
2012-10-09 15:00:00,82.9,75.3,30.00,East,91,3.0,4.0,78,0.00,,---,0.00,144.00,VWS V14.01,2012-10-09 19:00:00,
2012-10-09 15:05:00,81.8,73.9,30.00,NW,309,0.0,5.0,77,0.00,,---,0.00,137.00,VWS V14.01,2012-10-09 19:05:00,
2012-10-09 15:10:00,81.2,74.8,30.00,ENE,60,1.0,3.0,81,0.00,,---,0.00,146.00,VWS V14.01,2012-10-09 19:10:00,
2012-10-09 15:15:00,81.0,75.0,30.00,NNE,14,0.0,3.0,82,0.00,,---,0.00,139.00,VWS V14.01,2012-10-09 19:15:00,
2012-10-09 15:20:00,80.8,74.8,30.00,NNE,14,0.0,3.0,82,0.00,,---,0.00,158.00,VWS V14.01,2012-10-09 19:20:00,
2012-10-09 15:25:00,81.2,74.8,30.00,NE,50,0.0,4.0,81,0.00,,---,0.00,207.00,VWS V14.01,2012-10-09 19:25:00,
2012-10-09 15:30:00,81.7,74.2,30.00,SE,133,0.0,4.0,78,0.00,,---,0.00,202.00,VWS V14.01,2012-10-09 19:30:00,
2012-10-09 15:35:00,82.6,74.3,30.00,North,4,0.0,4.0,76,0.00,,---,0.00,761.00,VWS V14.01,2012-10-09 19:35:00,
2012-10-09 15:40:00,83.4,74.7,29.99,ENE,65,1.0,4.0,75,0.00,,---,0.00,766.00,VWS V14.01,2012-10-09 19:40:00,
2012-10-09 15:45:00,83.8,75.0,29.99,South,170,3.0,5.0,75,0.00,,---,0.00,729.00,VWS V14.01,2012-10-09 19:45:00,
2012-10-09 15:50:00,83.8,74.6,29.99,SSE,166,0.0,6.0,74,0.00,,---,0.00,744.00,VWS V14.01,2012-10-09 19:50:00,
2012-10-09 15:55:00,83.6,75.2,29.99,North,351,2.0,6.0,76,0.00,,---,0.00,120.00,VWS V14.01,2012-10-09 19:55:00,
2012-10-09 16:00:00,82.8,74.1,29.99,East,83,0.0,6.0,75,0.00,,---,0.00,127.00,VWS V14.01,2012-10-09 20:00:00,
2012-10-09 16:05:00,82.2,73.9,29.99,NE,39,1.0,6.0,76,0.00,,---,0.00,116.00,VWS V14.01,2012-10-09 20:05:00,
2012-10-09 16:10:00,81.7,73.8,29.99,NE,34,0.0,4.0,77,0.00,,---,0.00,118.00,VWS V14.01,2012-10-09 20:10:00,
2012-10-09 16:15:00,81.7,74.2,29.99,NNE,26,0.0,4.0,78,0.00,,---,0.00,120.00,VWS V14.01,2012-10-09 20:15:00,
2012-10-09 16:20:00,81.5,73.6,29.99,NNE,25,0.0,4.0,77,0.00,,---,0.00,146.00,VWS V14.01,2012-10-09 20:20:00,
2012-10-09 16:25:00,82.2,74.3,29.99,NW,319,1.0,4.0,77,0.00,,---,0.00,167.00,VWS V14.01,2012-10-09 20:25:00,
2012-10-09 16:30:00,82.9,74.6,29.99,NW,320,0.0,4.0,76,0.00,,---,0.00,216.00,VWS V14.01,2012-10-09 20:30:00,
2012-10-09 16:35:00,83.3,74.6,29.98,NW,324,0.0,4.0,75,0.00,,---,0.00,156.00,VWS V14.01,2012-10-09 20:35:00,
2012-10-09 16:40:00,83.4,74.7,29.98,NNW,337,2.0,4.0,75,0.00,,---,0.00,156.00,VWS V14.01,2012-10-09 20:40:00,
2012-10-09 16:45:00,83.3,74.9,29.98,ENE,66,1.0,4.0,76,0.00,,---,0.00,149.00,VWS V14.01,2012-10-09 20:45:00,
2012-10-09 16:50:00,83.6,74.0,29.98,East,96,1.0,5.0,73,0.00,,---,0.00,171.00,VWS V14.01,2012-10-09 20:50:00,
2012-10-09 16:55:00,83.7,73.7,29.98,East,84,3.0,7.0,72,0.00,,---,0.00,171.00,VWS V14.01,2012-10-09 20:55:00,
2012-10-09 17:00:00,83.4,74.7,29.98,North,354,0.0,7.0,75,0.00,,---,0.00,141.00,VWS V14.01,2012-10-09 21:00:00,
2012-10-09 17:05:00,83.1,74.0,29.98,NE,53,2.0,7.0,74,0.00,,---,0.00,86.00,VWS V14.01,2012-10-09 21:05:00,
2012-10-09 17:10:00,82.9,74.2,29.98,ENE,60,0.0,7.0,75,0.00,,---,0.00,100.00,VWS V14.01,2012-10-09 21:10:00,
2012-10-09 17:15:00,82.6,74.7,29.98,North,8,0.0,7.0,77,0.00,,---,0.00,76.00,VWS V14.01,2012-10-09 21:15:00,
2012-10-09 17:20:00,82.2,74.3,29.98,NE,56,3.0,7.0,77,0.00,,---,0.00,74.00,VWS V14.01,2012-10-09 21:20:00,
2012-10-09 17:26:00,82.1,74.2,29.98,ENE,72,2.0,7.0,77,0.00,,---,0.00,74.00,VWS V14.01,2012-10-09 21:26:00,
2012-10-09 17:31:00,81.9,73.6,29.98,ENE,57,2.0,7.0,76,0.00,,---,0.00,60.00,VWS V14.01,2012-10-09 21:31:00,
2012-10-09 17:36:00,81.7,74.2,29.98,NE,45,2.0,7.0,78,0.00,,---,0.00,51.00,VWS V14.01,2012-10-09 21:36:00,
2012-10-09 17:41:00,81.6,74.5,29.99,North,2,0.0,7.0,79,0.00,,---,0.00,49.00,VWS V14.01,2012-10-09 21:41:00,
2012-10-09 17:46:00,81.6,74.8,29.99,North,2,0.0,7.0,80,0.00,,---,0.00,53.00,VWS V14.01,2012-10-09 21:46:00,
2012-10-09 17:51:00,81.5,74.7,29.99,North,355,1.0,7.0,80,0.00,,---,0.00,54.00,VWS V14.01,2012-10-09 21:51:00,
2012-10-09 17:56:00,81.3,74.5,29.99,NNE,18,0.0,7.0,80,0.00,,---,0.00,44.00,VWS V14.01,2012-10-09 21:56:00,
2012-10-09 18:00:00,82.9,74.2,29.98,ENE,71,4.0,7.0,75,0.00,,---,0.00,97.00,VWS V14.01,2012-10-09 22:00:00,
2012-10-09 18:01:00,81.1,74.7,29.99,North,6,0.0,7.0,81,0.00,,---,0.00,35.00,VWS V14.01,2012-10-09 22:01:00,
2012-10-09 18:06:00,80.9,74.5,29.99,North,6,0.0,7.0,81,0.00,,---,0.00,63.00,VWS V14.01,2012-10-09 22:06:00,
2012-10-09 18:11:00,80.7,74.3,29.99,North,10,0.0,3.0,81,0.00,,---,0.00,30.00,VWS V14.01,2012-10-09 22:11:00,
2012-10-09 18:16:00,80.6,74.6,29.99,NNE,16,0.0,3.0,82,0.00,,---,0.00,30.00,VWS V14.01,2012-10-09 22:16:00,
2012-10-09 18:21:00,80.3,74.3,29.99,NNE,16,0.0,3.0,82,0.00,,---,0.00,30.00,VWS V14.01,2012-10-09 22:21:00,
2012-10-09 18:26:00,80.2,74.2,29.99,NNW,337,0.0,4.0,82,0.00,,---,0.00,28.00,VWS V14.01,2012-10-09 22:26:00,
2012-10-09 18:31:00,80.1,74.1,29.99,ENE,76,0.0,4.0,82,0.00,,---,0.00,25.00,VWS V14.01,2012-10-09 22:31:00,
2012-10-09 18:36:00,79.9,74.3,29.99,NE,38,0.0,4.0,83,0.00,,---,0.00,21.00,VWS V14.01,2012-10-09 22:36:00,
2012-10-09 18:41:00,79.7,74.1,29.99,East,96,0.0,4.0,83,0.00,,---,0.00,14.00,VWS V14.01,2012-10-09 22:41:00,
2012-10-09 18:46:00,79.5,74.2,29.99,NE,39,0.0,4.0,84,0.00,,---,0.00,11.00,VWS V14.01,2012-10-09 22:46:00,
2012-10-09 18:51:00,79.3,74.4,30.00,NE,39,0.0,4.0,85,0.00,,---,0.00,11.00,VWS V14.01,2012-10-09 22:51:00,
2012-10-09 18:56:00,79.0,73.8,30.00,SE,136,0.0,4.0,84,0.00,,---,0.00,7.00,VWS V14.01,2012-10-09 22:56:00,
2012-10-09 19:00:00,80.8,74.8,29.99,North,6,0.0,7.0,82,0.00,,---,0.00,44.00,VWS V14.01,2012-10-09 23:00:00,
2012-10-09 19:01:00,78.7,73.5,30.00,South,189,0.0,4.0,84,0.00,,---,0.00,5.00,VWS V14.01,2012-10-09 23:01:00,
2012-10-09 19:06:00,78.5,73.6,30.00,South,189,0.0,4.0,85,0.00,,---,0.00,0.00,VWS V14.01,2012-10-09 23:06:00,
2012-10-09 19:11:00,78.4,73.2,30.00,South,189,0.0,0.0,84,0.00,,---,0.00,0.00,VWS V14.01,2012-10-09 23:11:00,
2012-10-09 19:16:00,78.2,73.3,30.00,SW,229,0.0,0.0,85,0.00,,---,0.00,0.00,VWS V14.01,2012-10-09 23:16:00,
2012-10-09 19:21:00,78.0,73.1,30.00,SW,229,0.0,0.0,85,0.00,,---,0.00,0.00,VWS V14.01,2012-10-09 23:21:00,
2012-10-09 19:26:00,77.7,72.8,30.00,South,175,0.0,0.0,85,0.00,,---,0.00,0.00,VWS V14.01,2012-10-09 23:26:00,
2012-10-09 19:32:00,77.5,72.6,30.00,South,175,0.0,0.0,85,0.00,,---,0.00,0.00,VWS V14.01,2012-10-09 23:32:00,
2012-10-09 19:37:00,77.4,72.9,30.01,South,175,0.0,0.0,86,0.00,,---,0.00,0.00,VWS V14.01,2012-10-09 23:37:00,
2012-10-09 19:42:00,77.3,73.1,30.01,South,175,0.0,1.0,87,0.00,,---,0.00,0.00,VWS V14.01,2012-10-09 23:42:00,
2012-10-09 19:47:00,77.1,73.3,30.01,South,175,0.0,1.0,88,0.00,,---,0.00,0.00,VWS V14.01,2012-10-09 23:47:00,
2012-10-09 19:52:00,77.1,73.3,30.01,WSW,252,0.0,1.0,88,0.00,,---,0.00,0.00,VWS V14.01,2012-10-09 23:52:00,
2012-10-09 19:57:00,76.9,73.1,30.01,WSW,252,0.0,1.0,88,0.00,,---,0.00,0.00,VWS V14.01,2012-10-09 23:57:00,
2012-10-09 20:00:00,78.5,73.3,30.00,South,189,0.0,4.0,84,0.00,,---,0.00,0.00,VWS V14.01,2012-10-10 00:00:00,
2012-10-09 20:02:00,76.8,73.0,30.01,WSW,252,0.0,1.0,88,0.00,,---,0.00,0.00,VWS V14.01,2012-10-10 00:02:00,
2012-10-09 20:07:00,76.8,73.3,30.02,WSW,252,0.0,1.0,89,0.00,,---,0.00,0.00,VWS V14.01,2012-10-10 00:07:00,
2012-10-09 20:12:00,76.7,73.2,30.02,WSW,252,0.0,0.0,89,0.00,,---,0.00,0.00,VWS V14.01,2012-10-10 00:12:00,
2012-10-09 20:17:00,76.6,73.1,30.02,WSW,252,0.0,1.0,89,0.00,,---,0.00,0.00,VWS V14.01,2012-10-10 00:17:00,
2012-10-09 20:22:00,76.5,72.7,30.02,ENE,67,0.0,3.0,88,0.00,,---,0.00,0.00,VWS V14.01,2012-10-10 00:22:00,
2012-10-09 20:27:00,76.4,72.6,30.02,ENE,61,0.0,3.0,88,0.00,,---,0.00,0.00,VWS V14.01,2012-10-10 00:27:00,
2012-10-09 20:32:00,76.2,72.4,30.02,ENE,61,0.0,3.0,88,0.00,,---,0.00,0.00,VWS V14.01,2012-10-10 00:32:00,
2012-10-09 20:37:00,76.2,72.4,30.02,ENE,60,2.0,3.0,88,0.00,,---,0.00,0.00,VWS V14.01,2012-10-10 00:37:00,
2012-10-09 20:42:00,76.2,72.4,30.02,ENE,59,0.0,3.0,88,0.00,,---,0.00,0.00,VWS V14.01,2012-10-10 00:42:00,
2012-10-09 20:47:00,76.1,72.3,30.03,ENE,59,0.0,3.0,88,0.00,,---,0.00,0.00,VWS V14.01,2012-10-10 00:47:00,
2012-10-09 20:52:00,76.1,72.3,30.03,ENE,59,0.0,3.0,88,0.00,,---,0.00,0.00,VWS V14.01,2012-10-10 00:52:00,
2012-10-09 20:57:00,75.9,72.1,30.02,ENE,75,0.0,3.0,88,0.00,,---,0.00,0.00,VWS V14.01,2012-10-10 00:57:00,
2012-10-09 21:00:00,76.7,72.9,30.02,WSW,252,0.0,1.0,88,0.00,,---,0.00,0.00,VWS V14.01,2012-10-10 01:00:00,
2012-10-09 21:02:00,75.7,72.2,30.03,ENE,75,0.0,3.0,89,0.00,,---,0.00,0.00,VWS V14.01,2012-10-10 01:02:00,
2012-10-09 21:07:00,75.6,72.1,30.03,ENE,75,0.0,3.0,89,0.00,,---,0.00,0.00,VWS V14.01,2012-10-10 01:07:00,
2012-10-09 21:12:00,75.5,72.0,30.03,ENE,74,0.0,2.0,89,0.00,,---,0.00,0.00,VWS V14.01,2012-10-10 01:12:00,
2012-10-09 21:17:00,75.5,72.0,30.03,ENE,74,1.0,2.0,89,0.00,,---,0.00,0.00,VWS V14.01,2012-10-10 01:17:00,
2012-10-09 21:22:00,75.5,72.0,30.03,ENE,74,1.0,2.0,89,0.00,,---,0.00,0.00,VWS V14.01,2012-10-10 01:22:00,
2012-10-09 21:27:00,75.6,72.1,30.03,ENE,62,0.0,3.0,89,0.00,,---,0.00,0.00,VWS V14.01,2012-10-10 01:27:00,
2012-10-09 21:32:00,75.7,72.2,30.03,ENE,64,1.0,3.0,89,0.00,,---,0.00,0.00,VWS V14.01,2012-10-10 01:32:00,
2012-10-09 21:37:00,75.8,72.3,30.03,ENE,70,3.0,4.0,89,0.00,,---,0.00,0.00,VWS V14.01,2012-10-10 01:37:00,
2012-10-09 21:42:00,75.8,72.3,30.03,NE,45,2.0,4.0,89,0.00,,---,0.00,0.00,VWS V14.01,2012-10-10 01:42:00,
2012-10-09 21:47:00,75.9,72.4,30.04,ENE,63,0.0,5.0,89,0.00,,---,0.00,0.00,VWS V14.01,2012-10-10 01:47:00,
2012-10-09 21:52:00,75.9,72.4,30.04,East,97,2.0,5.0,89,0.00,,---,0.00,0.00,VWS V14.01,2012-10-10 01:52:00,
2012-10-09 21:57:00,75.9,72.4,30.04,East,81,1.0,5.0,89,0.00,,---,0.00,0.00,VWS V14.01,2012-10-10 01:57:00,
2012-10-09 22:00:00,75.6,72.1,30.03,ENE,74,0.0,3.0,89,0.00,,---,0.00,0.00,VWS V14.01,2012-10-10 02:00:00,
2012-10-09 22:02:00,75.9,72.4,30.04,NE,56,0.0,5.0,89,0.00,,---,0.00,0.00,VWS V14.01,2012-10-10 02:02:00,
2012-10-09 22:07:00,76.0,72.9,30.04,East,97,5.0,7.0,90,0.00,,---,0.00,0.00,VWS V14.01,2012-10-10 02:07:00,
2012-10-09 22:12:00,75.9,72.8,30.04,NE,45,1.0,5.0,90,0.00,,---,0.00,0.00,VWS V14.01,2012-10-10 02:12:00,
2012-10-09 22:17:00,75.8,72.7,30.05,ENE,66,5.0,7.0,90,0.00,,---,0.00,0.00,VWS V14.01,2012-10-10 02:17:00,
2012-10-09 22:22:00,75.7,72.6,30.05,East,93,3.0,7.0,90,0.00,,---,0.00,0.00,VWS V14.01,2012-10-10 02:22:00,
2012-10-09 22:27:00,75.6,72.5,30.05,ENE,73,2.0,7.0,90,0.00,,---,0.00,0.00,VWS V14.01,2012-10-10 02:27:00,
2012-10-09 22:32:00,75.4,72.3,30.05,ESE,108,3.0,7.0,90,0.00,,---,0.00,0.00,VWS V14.01,2012-10-10 02:32:00,
2012-10-09 22:37:00,75.2,72.1,30.05,East,88,1.0,7.0,90,0.00,,---,0.00,0.00,VWS V14.01,2012-10-10 02:37:00,
2012-10-09 22:42:00,75.0,72.2,30.05,East,81,2.0,7.0,91,0.00,,---,0.00,0.00,VWS V14.01,2012-10-10 02:42:00,
2012-10-09 22:47:00,74.8,72.0,30.05,NE,51,1.0,7.0,91,0.00,,---,0.00,0.00,VWS V14.01,2012-10-10 02:47:00,
2012-10-09 22:52:00,74.8,72.0,30.06,East,97,2.0,7.0,91,0.00,,---,0.00,0.00,VWS V14.01,2012-10-10 02:52:00,
2012-10-09 22:57:00,74.7,71.9,30.06,NNE,29,0.0,7.0,91,0.00,,---,0.00,0.00,VWS V14.01,2012-10-10 02:57:00,
2012-10-09 23:00:00,76.0,72.9,30.04,ENE,78,4.0,7.0,90,0.00,,---,0.00,0.00,VWS V14.01,2012-10-10 03:00:00,
2012-10-09 23:02:00,74.5,72.0,30.06,East,91,0.0,7.0,92,0.00,,---,0.00,0.00,VWS V14.01,2012-10-10 03:02:00,
2012-10-09 23:07:00,74.3,72.2,30.06,ENE,67,3.0,7.0,93,0.00,,---,0.00,0.00,VWS V14.01,2012-10-10 03:07:00,
2012-10-09 23:12:00,74.3,72.2,30.06,NE,55,1.0,5.0,93,0.00,,---,0.00,0.00,VWS V14.01,2012-10-10 03:12:00,
2012-10-09 23:18:00,74.1,71.9,30.06,ENE,72,1.0,5.0,93,0.00,,---,0.00,0.00,VWS V14.01,2012-10-10 03:18:00,
2012-10-09 23:22:00,74.0,71.8,30.06,ENE,72,0.0,5.0,93,0.00,,---,0.00,0.00,VWS V14.01,2012-10-10 03:22:00,
2012-10-09 23:27:00,73.9,71.8,30.06,ENE,70,1.0,5.0,93,0.00,,---,0.00,0.00,VWS V14.01,2012-10-10 03:27:00,
2012-10-09 23:32:00,73.8,71.7,30.06,ENE,59,1.0,5.0,93,0.00,,---,0.00,0.00,VWS V14.01,2012-10-10 03:32:00,
2012-10-09 23:37:00,73.8,72.0,30.06,ENE,66,1.0,7.0,94,0.00,,---,0.00,0.00,VWS V14.01,2012-10-10 03:37:00,
2012-10-09 23:42:00,73.8,72.0,30.06,East,86,4.0,7.0,94,0.00,,---,0.00,0.00,VWS V14.01,2012-10-10 03:42:00,
2012-10-09 23:48:00,73.8,72.0,30.06,ENE,78,2.0,7.0,94,0.00,,---,0.00,0.00,VWS V14.01,2012-10-10 03:48:00,
2012-10-09 23:53:00,73.7,71.6,30.06,NE,39,1.0,7.0,93,0.00,,---,0.00,0.00,VWS V14.01,2012-10-10 03:53:00,
2012-10-09 23:58:00,73.6,71.5,30.06,ENE,58,3.0,7.0,93,0.00,,---,0.00,0.00,VWS V14.01,2012-10-10 03:58:00,